Location: Batang Balui
(2.7000°N, 113.7833°E)
Time: 04:29:36
(UTC+00:00)

CZ-3 R/B - Pass Details

Date: 08 February 2023
Orbit: 452 x 10130 km, 28.3° (Epoch: 26 March)

Event Time Altitude Azimuth Distance (km) Brightness Sun altitude
Rises 18:24:59 0° 240° (WSW) 15,231 7.4 -61.2°
Reaches altitude 10° 18:42:39 10° 241° (WSW) 13,840 7.1 -57.2°
Enters shadow 19:13:19 31° 246° (WSW) 9,658 6.1 -50.1°
Exits shadow 19:37:13 66° 275° (W) 4,793 4.5 -44.4°
Maximum altitude 19:41:46 74° 324° (NW) 3,940 4.2 -43.4°
Drops below altitude 10° 19:54:41 10° 50° (NE) 4,165 5.0 -40.3°
Sets 19:56:46 0° 53° (NE) 4,679 5.4 -39.8°
